7 * 24
多渠道服务支持
STARLINK-36680(NORAD编号68721)是美国太空探索技术公司(SpaceX)星链(Starlink)低轨卫星互联网星座的一员,属于星链组网部署的卫星。星链项目旨在近地轨道搭建卫星互联网,为全球提供高带宽互联网接入服务。 该卫星运行于近地轨道,归属星链星座轨道部署体系,依托SpaceX猎鹰系列火箭完成发射入轨,作为星链网络的空间节点,承担用户数据传输、星座信号覆盖补充功能,助力星链实现全球无缝通信覆盖,支撑民用互联网接入及相关拓展应用。
美国
(US)
| 数据来源 | 国际轨道数据 |
| 星历时间: | 2026-05-24T12:00:02+0800 1天前 查看轨道信息 |
| 半长轴: | 6798.174km |
| 偏心率: | 0.0000907 |
| 轨道倾角: | 53.160° |
| 近地点辐角 | 92.880° |
| 升交点赤经 | 43.599° |
| 平近点角 | 40.635° |
| 近地点: | 419.42km |
| 远地点: | 420.654km |
| 周期: | 92.971分钟 |
| 每日圈数: | 15.488678 |